User: anonymous   Login
Location: Elk Forest
(39.5314°N, 75.8738°W)
Time: 02:47:57
(UTC-04:00)
Language:

Resurs 01 Rocket - Orbit

View from above orbital plane
View from above orbital plane
View from above satellite
View from above satellite

Ground track
Ground track

The orbit data is extracted from the following two-line orbital elements,

1 23343U 94074B   15186.70219605  .00000270  00000-0  46409-4 0  9996
2 23343 098.2181 202.4875 0006732 184.1197 300.9516 14.76541776111682
Epoch (UTC): 05 July 2015 16:51:09
Eccentricity: 0.0006732
inclination: 98.2181°
perigee height: 635 km
apogee height: 645 km
right ascension of ascending node: 202.4875°
argument of perigee: 184.1197°
revolutions per day: 14.76541776
mean anomaly at epoch: 300.9516°
orbit number at epoch: 11168

The dashed part of the orbit path shows where the satellite is in the earth's shadow,  

DLR